www.pogodaiklimat.ru

Погода и климат >> Архив погоды >> Россия >> Челябинская область >> Миасс


АРХИВ ПОГОДЫ в Миассе

Время (UTC), дата Ветер
(напр.,м/с)
 
Видим.   Явления Облачность Т
(С)
Тd
(С)
f
(%)
Тe
(С)
Тes
(С)
Комфортность P
(гПа)
Po
(гПа)
Тmin
(С)
Tmax
(С)
R
(мм)
R24
(мм)
S
(см)
06 13.06 СЗ 5
{12}
20 км 8/8 600 м
[Sc]
+11.3 -0.1 45 +9 +10 очень
холодно
1011.3 971.3 +10.6
09 13.06 СЗ 5-10
{12}
50 км 8/8 600 м
[Sc]
+12.6 -0.2 41 +11 +12 очень
холодно
1012.1 972.3
12 13.06 СЗ 3
{11}
20 км 8/8 600 м
[Sc]
+12.5 -0.4 41 +11 +13 очень
холодно
1012.9 973.0
15 13.06 СЗ 3 20 км 8/6 600 м
[Sc Ac trans]
+10.2 -1.2 45 +9 +9 очень
холодно
1013.9 973.7 +13.0
18 13.06 СЗ 2 10 км 6/0
[Ac trans]
+7.7 -0.1 58 +6 +6 очень
холодно
1015.2 974.5
21 13.06 З 1 10 км 10/0
[Ac und]
+7.3 +0.5 62 +7 +7 очень
холодно
1015.7 975.0
00 14.06 З 1 10 км 8/3 600 м
[Sc Ac trans]
+5.8 +1.1 72 +5 +5 очень
холодно
1016.2 975.2
03 14.06 СЗ 3 20 км 8/3 600 м
[Sc Ac trans Cc]
+8.4 +1.3 61 +6 +8 очень
холодно
1015.8 975.2 +5.6
06 14.06 СЗ 3 20 км 8/5 600 м
[Sc Ac trans]
+12.2 -1.2 39 +11 +15 очень
холодно
1014.5 974.4
09 14.06 СЗ 4
{10}
20 км 8/6 600 м
[Sc Ac trans]
+14.6 -1.0 34 +14 +17 очень
холодно
1012.2 972.6
12 14.06 СЗ 4
{12}
50 км 8/5 600 м
[Sc Ci fib]
+14.7 -1.5 33 +14 +16 очень
холодно
1010.9 971.4
15 14.06 СЗ 3
{10}
20 км 10/3 600 м
[Sc Ac trans Cs]
+13.5 -0.3 39 +13 +13 очень
холодно
1010.3 970.6 +15.7
18 14.06 З 4 10 км 10/0
[Ac trans Cs]
+10.6 +2.4 57 +8 +8 очень
холодно
1010.7 970.6
21 14.06 СЗ 2 10 км 10/5 600 м
[Cb cap Ac As]
+8.9 +3.8 70 +7 +7 очень
холодно
1010.3 970.0
00 15.06 СЗ 1 10 км 10/3 600 м
[Sc Ac As]
+7.2 +4.0 80 +6 +6 очень
холодно
1009.7 969.2
03 15.06 СЗ 2 10 км 10/5 600 м
[Cb cap Ac As]
+8.9 +3.8 70 +7 +8 очень
холодно
1010.3 970.0
06 15.06 С 3 10 км 8/8 600 м
[Cb cap]
+11.9 +3.1 55 +11 +13 очень
холодно
1009.1 969.3
09 15.06 СЗ 2 20 км 8/8 600 м
[Cb cap Ac trans]
+15.9 +1.9 39 +16 +19 холодно 1008.2 968.9
12 15.06 СЗ 3
{10}
20 км 8/6 600 м
[Cb cap Ac trans]
+13.9 +2.6 46 +13 +15 очень
холодно
1009.1 969.5
15 15.06 СЗ 1 10 км 9/6 600 м
[Cb cap Ac trans Ci fib]
+13.1 +4.0 54 +14 +14 холодно 1009.5 969.8 +16.9
18 15.06 СВ 1 10 км 5/3 600 м
[Sc diur, vesp Ac trans Ci fib]
+9.0 +4.0 71 +9 +9 очень
холодно
1010.1 969.9
21 15.06 штиль 0 10 км 9/3 600 м
[Cb cap Ac trans Ci fib]
+5.6 +3.5 86 +5 +5 очень
холодно
1010.1 969.4
00 16.06 В 1 10 км 9/4 600 м
[Cb cap Ac trans Cc]
+5.6 +3.8 88 +4 +4 очень
холодно
1009.5 968.8
03 16.06 З 3 20 км 6/3 600 м
[Sc Ac lent Cc]
+13.4 +4.1 53 +12 +15 холодно 1007.6 968.1 +4.9
06 16.06 З 4 50 км 8/5 600 м
[Cb cap Cc]
+16.1 +1.0 36 +16 +20 холодно 1006.0 966.9
09 16.06 З 5
{11}
50 км 9/6 600 м
[Cb cap Ac trans Cc]
+17.5 +1.3 34 +17 +19 холодно 1004.6 965.7
12 16.06 З 4
{12}
20 км в посл. час ливневой дождь 10/5 600 м
[Cb cap Ac trans Cc]
+14.3 +6.2 58 +13 +14 очень
холодно
1005.5 966.1
15 16.06 ЮЗ 2
{13}
20 км {ливн. осадки} 9/6 600 м
[Cb cap Ac trans]
+11.4 +6.9 74 +10 +11 очень
холодно
1006.8 967.0 +18.7 0.8
18 16.06 З 1 10 км слаб. ливневой дождь 10/10 600 м
[Cb cap]
+9.2 +6.4 83 +9 +9 очень
холодно
1007.5 967.4
21 16.06 штиль 0 10 км {ливн. осадки} 10/8 600 м
[Cb cap As op]
+8.1 +6.3 88 +7 +7 очень
холодно
1007.1 966.9
00 17.06 СЗ 2 10 км {ливн. осадки} 8/3 600 м
[Cb cap Ac trans Cc]
+7.6 +5.6 87 +5 +5 очень
холодно
1007.7 967.4
03 17.06 С 2 20 км 4/3 600 м
[Cu Sc Ci fib]
+10.2 +4.3 67 +9 +12 очень
холодно
1008.4 968.4 +6.5 1
06 17.06 С 3 20 км 8/8 600 м
[Cu med, cong]
+13.4 +1.8 45 +13 +15 очень
холодно
1008.1 968.5
09 17.06 СЗ 4-10
{10}
50 км 8/8 600 м
[Cu med, cong]
+15.2 +0.4 36 +14 +16 очень
холодно
1007.7 968.3
12 17.06 СЗ 2
{10}
50 км 9/3 600 м
[Sc diur, vesp Ac trans]
+15.5 +1.4 38 +16 +18 очень
холодно
1007.0 967.7
15 17.06 З 2 20 км 9/0
[Ac trans Cs]
+15.1 +3.0 44 +15 +16 холодно 1006.3 967.0 +16.6
18 17.06 Ю 1 10 км слаб. ливневой дождь 10/5 600 м
[Cb cap Ac und]
+13.5 +5.0 56 +14 +14 прохладно 1004.9 965.5
21 17.06 СЗ 3 10 км {ливн. осадки} 6/5 600 м
[Cb cap Ci fib]
+11.3 +7.0 75 +10 +10 холодно 1004.4 964.7
00 18.06 СЗ 3 10 км {ливн. осадки} 8/8 600 м
[Cb cap Ac trans]
+9.8 +5.1 73 +8 +8 холодно 1005.6 965.6
03 18.06 СЗ 4 20 км 8/8 600 м
[Cb cap]
+10.4 +3.9 64 +8 +9 очень
холодно
1007.6 967.6 +9.3 0.3
06 18.06 С 4
{12}
20 км 8/8 600 м
[Cb cap]
+14.7 +1.4 40 +14 +16 очень
холодно
1007.5 968.2
09 18.06 С 3
{11}
20 км 8/8 600 м
[Cb cap]
+15.1 +1.3 39 +15 +17 очень
холодно
1008.8 969.4
12 18.06 СЗ 3
{10}
50 км 8/8 600 м
[Sc]
+15.3 +1.1 38 +15 +16 очень
холодно
1009.3 969.9
15 18.06 СЗ 2 50 км 3/3 600 м
[Sc]
+15.3 +1.1 38 +15 +16 холодно 1009.7 970.3 +16.8
18 18.06 штиль 0 10 км ясно +6.8 +2.3 73 +6 +6 очень
холодно
1012.2 971.5
21 18.06 штиль 0 10 км ясно +3.9 +1.9 87 +3 +3 очень
холодно
1013.1 972.0
00 19.06 Ю 1 20 км 6/0
[Ci fib]
+3.0 +1.7 91 +1 +1 очень
холодно
1013.8 972.5
03 19.06 Ю 2 20 км 3/0
[Ci fib]
+10.8 +5.3 69 +10 +14 очень
холодно
1012.9 972.8 +2.3
06 19.06 Ю 3 20 км 8/5 600 м
[Cu Sc Ac trans Ci fib]
+18.4 +4.0 38 +19 +23 прохладно 1011.2 972.1
09 19.06 Ю 3 50 км 6/3 600 м
[Cu hum Ac trans Ci fib]
+21.1 +4.1 33 +21 +28 комфорт 1009.8 971.2
12 19.06 СЗ 2 50 км 9/3 600 м
[Cu Sc Ac trans Ci fib]
+22.7 +3.8 29 +23 +26 комфорт 1009.2 970.8
15 19.06 СЗ 2 20 км 8/0
[Ci fib]
+21.2 +4.7 34 +22 +22 комфорт 1009.9 971.2 +23.5
18 19.06 штиль 0 10 км 4/0
[Ac trans Ci fib]
+12.2 +6.4 68 +12 +12 холодно 1011.9 972.0
21 19.06 штиль 0 10 км 3/0
[Ci fib]
+8.3 +6.1 86 +7 +7 очень
холодно
1013.2 972.7
00 20.06 штиль 0 10 км 3/0
[Ci fib]
+6.9 +5.5 91 +6 +6 очень
холодно
1013.8 973.1
03 20.06 Ю 1 10 км 3/0
[Ci fib]
+15.0 +8.9 67 +16 +21 прохладно 1012.9 973.4 +6.6

 

Местоположение метеостанции Миасс (Челябинская область, Россия): широта 55.00 долгота 60.08 высота над уровнем моря 338 м.

В архиве по умолчанию представлена погода в Миассе за последнюю неделю. Архивные данные за месяц целиком и за предыдущие месяцы, начиная с января 2011 года, Вы можете получить, выбрав интересующий диапазон дат из раскрывающегося списка и нажав кнопку "Ввод!".


*Определитесь, кто Вы:
робот инопланетянин человек

Внимание! Время в таблицах - всемирное. Для получения местного времени необходимо прибавить поправку, которая равна 5 ч.

Смотрите также архив погоды в соседних городах и на ближайших метеорологических станциях:

Погода в Златоусте (Челябинская область, Россия) (32 км)
Погода в Мирном (Челябинская область, Россия) (52 км)
Погода в Челябинске (Челябинская область, Россия) (79 км)
Погода в Аргаяше (Челябинская область, Россия) (80 км)
Погода в Учалах (Башкирия, Россия) (83 км)
Погода в Южноуральске (Челябинская область, Россия) (103 км)
Погода в Николаевке (Башкирия, Россия) (112 км)
Погода в Верхнем Уфалее (Челябинская область, Россия) (121 км)
Погода в Нязепетровске (Челябинская область, Россия) (121 км)
Погода в Катав-Ивановске (Челябинская область, Россия) (122 км)

Пояснения к столбцам:

Ветер - указаны скорость ветра в м/с - средняя за 10 мин, порывы в срок и между сроками (в фигурных скобках) и направление, откуда дует ветер: С - северный, СВ - северо-восточный, В - восточный, ЮВ - юго-восточный, Ю - южный, ЮЗ - юго-западный, З - западный, СЗ - северо-западный.
Видимость - горизонтальная дальность видимости в метрах или километрах. При видимости от 1 до 10 км при отсутствии осадков обычно наблюдается дымка, при ухудшении видимости до 1 км и менее - туман. В сухую погоду видимость может ухудшаться дымом, пылью или мглою.
Явления - указаны атмосферные явления, наблюдавшиеся в срок или в последний час перед сроком; фигурными скобками обозначены явления, наблюдавшиеся между сроками (за 1-3 часа до срока); квадратными скобками обозначены град или гололедные отложения с указанием их диаметра в мм.
Облачность - указаны через наклонную черту общая и нижняя облачность в баллах и высота нижней границы облаков в метрах; квадратными скобками обозначены формы облаков: Ci - перистые, Cs - перисто-слоистые, Cc - перисто-кучевые, Ac - высококучевые, As - высокослоистые, Sc - слоисто-кучевые, Ns - слоисто-дождевые, Cu - кучевые, Cb - кучево-дождевые. Подробнее классификацию облаков см. в Атласе облаков (PDF).
T - Температура воздуха - температура, измеренная на высоте 2 м над землей.
Td - Температура точки росы - температура, при понижении до которой содержащийся в воздухе водяной пар достигнет насыщения.
f - Относительная влажность воздуха - влажноcть воздуха, измеренная на высоте 2 м над землей.
Te - Эффективная температура - температура, которую ощущает одетый по сезону человек в тени. Характеристика душности погоды. При расчете учитывается влияние влажности воздуха и скорости ветра на теплоощущения человека.
Tes - Эффективная температура на солнце - температура, которую ощущает человек, с поправкой на солнечный нагрев. Характеристика знойности погоды. Зависит от высоты солнца над горизонтом, облачности и скорости ветра. Ночью, в пасмурную погоду, а также при ветре 12 м/с и более поправка равна нулю.
P - Атмосферное давление - приведенное к уровню моря атмосферное давление.
Po - Атмосферное давление - измеренное на уровне метеостанции атмосферное давление.
Tmin - Минимальная температура - минимум температуры воздуха на высоте 2 м над землей.
Tmax - Максимальная температура - максимум температуры воздуха на высоте 2 м над землей.
R - Количество осадков - Количество выпавших осадков за период времени, мм. При наведении курсора мыши на число - период времени, за который выпало указанное количество осадков.
R24 - Количество осадков - Количество выпавших осадков за 24 часа, мм.
S - Снежный покров - Высота снежного покрова, см. При наведении курсора мыши на число - состояние снежного покрова и степень покрытия местности в баллах.